Regional Weather Roundup
Issued by NWS

Home | Current Version | Previous Version | Text Only | Print | Product List | Glossary On
Versions: 1 2 3 4 5 6 7 8 9 10 11 12 13 14 15 16 17 18 19 20 21 22 23 24 25 26 27 28 29 30 31 32 33 34 35 36 37 38 39 40 41 42 43 44 45 46 47 48 49 50
000
ASUS43 KDTX 231210
RWRMI
MICHIGAN HOURLY REGIONAL WEATHER ROUNDUP
NATIONAL WEATHER SERVICE DETROIT/PONTIAC MI
800 AM EDT MON OCT 23 2017

NOTE: "FAIR" INDICATES FEW OR NO CLOUDS BELOW 12,000 FEET WITH NO
SIGNIFICANT WEATHER AND/OR OBSTRUCTION TO VISIBILITY.

MIZ047>049-052>055-059>063-066>070-074>076-081>083-231300-
SOUTHEAST LOWER MICHIGAN

CITY           SKY/WX    TMP DP  RH WIND       PRES   REMARKS
ADRIAN         CLOUDY    60  50  69 CALM      29.89F
6HR MIN TEMP:  60; 6HR MAX TEMP:  62;

ALMA           RAIN      56  55  96 NW8       29.88F
ANN ARBOR      CLOUDY    61  51  70 E6        29.89F
BAD AXE        CLOUDY    61  50  68 S10       29.92S
CARO           CLOUDY    63  49  60 S6        29.90R
DETROIT CITY   CLOUDY    63  53  70 S6        29.92F
6HR MIN TEMP:  62; 6HR MAX TEMP:  66;

DETROIT        CLOUDY    63  53  70 SE8       29.91F
6HR MIN TEMP:  62; 6HR MAX TEMP:  64;

FLINT          CLOUDY    62  51  67 S7        29.88F
6HR MIN TEMP:  61; 6HR MAX TEMP:  66;

GROSSE ILE     CLOUDY    62  56  80 S8        29.91F
6HR MIN TEMP:  61; 6HR MAX TEMP:  63;

HILLSDALE      CLOUDY    59  48  67 SE5       29.87F
HOWELL         CLOUDY    62  49  64 S6        29.88F
6HR MIN TEMP:  62; 6HR MAX TEMP:  64;


CITY           SKY/WX    TMP DP  RH WIND       PRES   REMARKS
JACKSON        CLOUDY    62  49  62 SE7       29.87F
6HR MIN TEMP:  62; 6HR MAX TEMP:  67;

LAMBERTVILLE   CLOUDY    65  51  60 SE7       29.89F
6HR MIN TEMP:  64; 6HR MAX TEMP:  65;

LANSING        CLOUDY    63  50  62 SE5       29.86F
6HR MIN TEMP:  61; 6HR MAX TEMP:  68; 6HR PCP: TRACE;

LAPEER         MOCLDY    62  50  63 S8        29.91S
6HR MIN TEMP:  62; 6HR MAX TEMP:  64;

MASON          CLOUDY    63  50  63 SE6       29.87F
MT. CLEMENS    CLOUDY    60  60  97 S8        29.90F
6HR MIN TEMP:  58; 6HR MAX TEMP:  60;

PONTIAC        CLOUDY    61  53  75 SE7       29.89F
6HR MIN TEMP:  61; 6HR MAX TEMP:  64;

PORT HOPE        N/A     62  51  67 CALM      29.89F
6HR MIN TEMP:  60; 6HR MAX TEMP:  68;

PORT HURON     CLOUDY    63  54  72 SE3       29.93F
TRI CITIES     CLOUDY    59  59 100 NE3       29.89S
6HR MIN TEMP:  59; 6HR MAX TEMP:  67; 6HR PCP: TRACE;

MIDLAND        CLOUDY    57  56  97 CALM      29.88R
6HR MIN TEMP:  56; 6HR MAX TEMP:  63; 6HR PCP:  0.01;

TROY           MOCLDY    63  52  67 SE3       29.93F
SAGINAW HB     CLOUDY    61  55  82 CALM      29.88S
$$
MIZ043>046-050>051-056>058-064>065-071>073-077>080-231300-
SOUTHWEST LOWER MICHIGAN

CITY           SKY/WX    TMP DP  RH WIND       PRES   REMARKS
BATTLE CREEK   LGT RAIN  60  57  89 CALM      29.86F
6HR MIN TEMP:  60; 6HR MAX TEMP:  66; 6HR PCP:  0.03;

BENTON HARBOR  LGT RAIN  55  53  93 VRB5      29.85F
6HR MIN TEMP:  55; 6HR MAX TEMP:  57; 6HR PCP:  0.52;

BIG RAPIDS     CLOUDY    51  49  93 N5        29.90S
6HR MIN TEMP:  51; 6HR MAX TEMP:  52; 6HR PCP:  0.38;

COLDWATER      LGT RAIN  63  50  61 SE7       29.85F
6HR MIN TEMP:  62; 6HR MAX TEMP:  66;

FREMONT        DRIZZLE   51  51 100 N9        29.89F
HOLLAND        LGT RAIN  53  51  93 N7        29.90S
6HR MIN TEMP:  53; 6HR MAX TEMP:  55; 6HR PCP:  0.34;

GRAND RAPIDS   LGT RAIN  55  55 100 N5        29.88R
6HR MIN TEMP:  55; 6HR MAX TEMP:  56; 6HR PCP:  0.25;

IONIA          RAIN      57  56  99 N3        29.86F
6HR MIN TEMP:  56; 6HR MAX TEMP:  62; 6HR PCP:  0.11;

KALAMAZOO      LGT RAIN  58  55  90 N8        29.86F FOG
6HR MIN TEMP:  58; 6HR MAX TEMP:  62; 6HR PCP:  0.06;

LUDINGTON      RAIN      50  49  97 CALM      29.91F
6HR MIN TEMP:  50; 6HR MAX TEMP:  51; 6HR PCP:  0.62;

MARSHALL       CLOUDY    64  51  62 SE7       29.86S
6HR MIN TEMP:  61; 6HR MAX TEMP:  65;

MOUNT PLEASANT RAIN      56  55  95 N5        29.88F
6HR MIN TEMP:  56; 6HR MAX TEMP:  57; 6HR PCP:  0.14;

MUSKEGON       RAIN      53  51  93 N6        29.92R
6HR MIN TEMP:  52; 6HR MAX TEMP:  53; 6HR PCP:  0.59;

SOUTH HAVEN    LGT RAIN  54  53  96 N10       29.86F
$$
MIZ016>042-231300-
NORTHERN LOWER MICHIGAN

CITY           SKY/WX    TMP DP  RH WIND       PRES   REMARKS
ALPENA         LGT RAIN  51  51 100 NW10      29.91F
6HR MIN TEMP:  51; 6HR MAX TEMP:  53; 6HR PCP:  0.20;

BEAVER ISLAND  CLOUDY    48  48 100 CALM      29.94S FOG
6HR MIN TEMP:  48; 6HR MAX TEMP:  52;

BELLAIRE       LGT RAIN  50  49  97 CALM      29.96R
6HR MIN TEMP:  50; 6HR MAX TEMP:  51;

CADILLAC       LGT RAIN  51  48  90 NE8       29.90F
CHARLEVOIX     RAIN      50  50 100 S3        29.97F
FRANKFORT        N/A    N/A N/A N/A MISG        N/A
GAYLORD        RAIN      47  46  97 CALM      29.96R FOG
6HR MIN TEMP:  47; 6HR MAX TEMP:  50; 6HR PCP:  0.75;

GRAYLING       LGT RAIN  48  46  93 N3        29.94S
6HR MIN TEMP:  48; 6HR MAX TEMP:  55;

HARBOR SPRINGS LGT RAIN  49  48  95 CALM      29.94F
HOUGHTON LAKE  LGT RAIN  50  49  96 N6        29.91F
6HR MIN TEMP:  50; 6HR MAX TEMP:  52; 6HR PCP:  0.66;

MANISTEE       RAIN      51  50  96 NE3       29.91F
OSCODA         CLOUDY    54  53  96 N9        29.90F
6HR MIN TEMP:  54; 6HR MAX TEMP:  60; 6HR PCP:  0.03;

PELLSTON       LGT RAIN  50  49  96 CALM      29.95F
6HR MIN TEMP:  49; 6HR MAX TEMP:  50; 6HR PCP:  0.47;

ROGERS CITY    HVY RAIN  51  50  95 CALM      29.96R
TRAVERSE CITY  RAIN      52  50  93 NE3       29.91F FOG
6HR MIN TEMP:  52; 6HR MAX TEMP:  53; 6HR PCP:  0.67;

$$
MIZ007>008-015-231300-
EASTERN UPPER MICHIGAN

CITY           SKY/WX    TMP DP  RH WIND       PRES   REMARKS
KINROSS        LGT RAIN  48  48 100 S6        29.95R
6HR MIN TEMP:  48; 6HR MAX TEMP:  49;

MACKINAC ISLAN MIX PCPN  50  50 100 E3        29.95S
6HR MIN TEMP:  50; 6HR MAX TEMP:  51; 6HR PCP:  0.34;

NEWBERRY       CLOUDY    43  42  97 S3        29.92S
6HR MIN TEMP:  43; 6HR MAX TEMP:  46;

S. S. MARIE    CLOUDY    50  48  93 S3        29.93S
6HR MIN TEMP:  50; 6HR MAX TEMP:  52; 6HR PCP:  0.11;

MUNISING         N/A     42  42 100 S6        29.90F
6HR MIN TEMP:  41; 6HR MAX TEMP:  45;

$$
MIZ004>006-011>014-085-231300-
CENTRAL UPPER MICHIGAN

CITY           SKY/WX    TMP DP  RH WIND       PRES   REMARKS
MANISTIQUE     HAZE      38  33  81 CALM      29.93S VSB 1/2
6HR MIN TEMP:  37; 6HR MAX TEMP:  47;

ESCANABA       FOG       43  43 100 W3        29.93S VSB 1/2
6HR MIN TEMP:  42; 6HR MAX TEMP:  44;

MENOMINEE      FOG       43  43 100 CALM      29.94S VSB 1/4
6HR MIN TEMP:  42; 6HR MAX TEMP:  46; 6HR PCP:  0.01;

SAWYER-GWINN   FOG       39  37  93 S6        29.90F VSB 1/4 WCI  35
$$
MIZ001>003-009>011-084-231300-
WESTERN UPPER MICHIGAN

CITY           SKY/WX    TMP DP  RH WIND       PRES   REMARKS
IRON MOUNTAIN  FOG       37  35  92 CALM      29.89F VSB 1/2
6HR MIN TEMP:  32; 6HR MAX TEMP:  41;

HOUGHTON       CLOUDY    43  38  82 SE3       29.81F
6HR MIN TEMP:  41; 6HR MAX TEMP:  44;

COPPER HARBOR    N/A     48  41  76 SW9G16    29.83F
6HR MIN TEMP:  46; 6HR MAX TEMP:  48;

IRONWOOD       CLOUDY    47  38  71 S17G23    29.76F
6HR MIN TEMP:  45; 6HR MAX TEMP:  49; 6HR PCP: TRACE;

$$

ABBREVIATIONS USED IN REMARKS
   TC - TEMPERATURE IN CELSIUS
  WCI - WIND CHILL INDEX
   HX - HEAT INDEX
  VSB - VISIBILITY





USA.gov is the U.S. government's official web portal to all federal, state and local government web resources and services.